<?xml version="1.0" encoding="utf-8"?>
<gpx xmlns:xsi="http://www.w3.org/2001/XMLSchema-instance" xmlns:xsd="http://www.w3.org/2001/XMLSchema" version="1.1" creator="Shapelink.com" xmlns="http://www.topografix.com/GPX/1/1" xmlns:gpxtpx="http://www.garmin.com/xmlschemas/TrackPointExtension/v1">
  <metadata>
    <name>Löpning 4.04 km, 2018-03-20</name>
    <desc></desc>
    <author><name>Marian Moron</name></author> 
    <time>1970-01-01T01:00:00Z</time>
  </metadata>
  <trk>
    <name>Löpning 4.04 km, 2018-03-20</name>
    <trkseg>
      <trkpt lat="51.21544" lon="4.483053">
        <ele>53.2857</ele>
        <time>1970-01-01T01:00:00Z</time>
      </trkpt>
      <trkpt lat="51.215397" lon="4.482922">
        <ele>53.25</ele>
        <time>1970-01-01T01:00:00Z</time>
      </trkpt>
      <trkpt lat="51.215342" lon="4.482774">
        <ele>53.4444</ele>
        <time>1970-01-01T01:00:00Z</time>
      </trkpt>
      <trkpt lat="51.215251" lon="4.482666">
        <ele>53.6</ele>
        <time>1970-01-01T01:00:00Z</time>
      </trkpt>
      <trkpt lat="51.215152" lon="4.482589">
        <ele>53.6364</ele>
        <time>1970-01-01T01:00:00Z</time>
      </trkpt>
      <trkpt lat="51.215072" lon="4.482552">
        <ele>53.8182</ele>
        <time>1970-01-01T01:00:00Z</time>
      </trkpt>
      <trkpt lat="51.214991" lon="4.482546">
        <ele>54.0909</ele>
        <time>1970-01-01T01:00:00Z</time>
      </trkpt>
      <trkpt lat="51.214883" lon="4.482542">
        <ele>54.1818</ele>
        <time>1970-01-01T01:00:00Z</time>
      </trkpt>
      <trkpt lat="51.214781" lon="4.482581">
        <ele>54.2727</ele>
        <time>1970-01-01T01:00:00Z</time>
      </trkpt>
      <trkpt lat="51.214701" lon="4.482676">
        <ele>54.1818</ele>
        <time>1970-01-01T01:00:00Z</time>
      </trkpt>
      <trkpt lat="51.214631" lon="4.482794">
        <ele>54.0909</ele>
        <time>1970-01-01T01:00:00Z</time>
      </trkpt>
      <trkpt lat="51.214576" lon="4.482925">
        <ele>54.0909</ele>
        <time>1970-01-01T01:00:00Z</time>
      </trkpt>
      <trkpt lat="51.214547" lon="4.483085">
        <ele>54.1818</ele>
        <time>1970-01-01T01:00:00Z</time>
      </trkpt>
      <trkpt lat="51.214536" lon="4.483245">
        <ele>54.2727</ele>
        <time>1970-01-01T01:00:00Z</time>
      </trkpt>
      <trkpt lat="51.214547" lon="4.483407">
        <ele>54.3636</ele>
        <time>1970-01-01T01:00:00Z</time>
      </trkpt>
      <trkpt lat="51.214549" lon="4.483556">
        <ele>54.6364</ele>
        <time>1970-01-01T01:00:00Z</time>
      </trkpt>
      <trkpt lat="51.214556" lon="4.483718">
        <ele>54.9091</ele>
        <time>1970-01-01T01:00:00Z</time>
      </trkpt>
      <trkpt lat="51.214565" lon="4.483869">
        <ele>54.8182</ele>
        <time>1970-01-01T01:00:00Z</time>
      </trkpt>
      <trkpt lat="51.214577" lon="4.484027">
        <ele>54.4545</ele>
        <time>1970-01-01T01:00:00Z</time>
      </trkpt>
      <trkpt lat="51.214578" lon="4.484165">
        <ele>54</ele>
        <time>1970-01-01T01:00:00Z</time>
      </trkpt>
      <trkpt lat="51.214581" lon="4.484308">
        <ele>53.6364</ele>
        <time>1970-01-01T01:00:00Z</time>
      </trkpt>
      <trkpt lat="51.214603" lon="4.484453">
        <ele>53.3636</ele>
        <time>1970-01-01T01:00:00Z</time>
      </trkpt>
      <trkpt lat="51.21463" lon="4.484601">
        <ele>52.9091</ele>
        <time>1970-01-01T01:00:00Z</time>
      </trkpt>
      <trkpt lat="51.214659" lon="4.484741">
        <ele>52.2727</ele>
        <time>1970-01-01T01:00:00Z</time>
      </trkpt>
      <trkpt lat="51.214711" lon="4.484845">
        <ele>51.6364</ele>
        <time>1970-01-01T01:00:00Z</time>
      </trkpt>
      <trkpt lat="51.214791" lon="4.484903">
        <ele>51.2727</ele>
        <time>1970-01-01T01:00:00Z</time>
      </trkpt>
      <trkpt lat="51.214871" lon="4.484943">
        <ele>50.7273</ele>
        <time>1970-01-01T01:00:00Z</time>
      </trkpt>
      <trkpt lat="51.214951" lon="4.484968">
        <ele>50.0909</ele>
        <time>1970-01-01T01:00:00Z</time>
      </trkpt>
      <trkpt lat="51.215057" lon="4.48497">
        <ele>49.5455</ele>
        <time>1970-01-01T01:00:00Z</time>
      </trkpt>
      <trkpt lat="51.21514" lon="4.484974">
        <ele>49.2727</ele>
        <time>1970-01-01T01:00:00Z</time>
      </trkpt>
      <trkpt lat="51.215222" lon="4.484939">
        <ele>49.2727</ele>
        <time>1970-01-01T01:00:00Z</time>
      </trkpt>
      <trkpt lat="51.215308" lon="4.484833">
        <ele>49.2727</ele>
        <time>1970-01-01T01:00:00Z</time>
      </trkpt>
      <trkpt lat="51.215377" lon="4.484733">
        <ele>49.1818</ele>
        <time>1970-01-01T01:00:00Z</time>
      </trkpt>
      <trkpt lat="51.215412" lon="4.484613">
        <ele>49.1818</ele>
        <time>1970-01-01T01:00:00Z</time>
      </trkpt>
      <trkpt lat="51.215438" lon="4.484478">
        <ele>49.3636</ele>
        <time>1970-01-01T01:00:00Z</time>
      </trkpt>
      <trkpt lat="51.215474" lon="4.484346">
        <ele>49.3636</ele>
        <time>1970-01-01T01:00:00Z</time>
      </trkpt>
      <trkpt lat="51.215461" lon="4.484218">
        <ele>49.3636</ele>
        <time>1970-01-01T01:00:00Z</time>
      </trkpt>
      <trkpt lat="51.215437" lon="4.484071">
        <ele>49.3636</ele>
        <time>1970-01-01T01:00:00Z</time>
      </trkpt>
      <trkpt lat="51.215436" lon="4.483918">
        <ele>49.3636</ele>
        <time>1970-01-01T01:00:00Z</time>
      </trkpt>
      <trkpt lat="51.215432" lon="4.483786">
        <ele>49.5455</ele>
        <time>1970-01-01T01:00:00Z</time>
      </trkpt>
      <trkpt lat="51.215439" lon="4.483625">
        <ele>49.9091</ele>
        <time>1970-01-01T01:00:00Z</time>
      </trkpt>
      <trkpt lat="51.215437" lon="4.483484">
        <ele>50.2727</ele>
        <time>1970-01-01T01:00:00Z</time>
      </trkpt>
      <trkpt lat="51.215408" lon="4.483333">
        <ele>50.6364</ele>
        <time>1970-01-01T01:00:00Z</time>
      </trkpt>
      <trkpt lat="51.215415" lon="4.48319">
        <ele>51</ele>
        <time>1970-01-01T01:00:00Z</time>
      </trkpt>
      <trkpt lat="51.215405" lon="4.483039">
        <ele>51.3636</ele>
        <time>1970-01-01T01:00:00Z</time>
      </trkpt>
      <trkpt lat="51.215386" lon="4.482875">
        <ele>51.6364</ele>
        <time>1970-01-01T01:00:00Z</time>
      </trkpt>
      <trkpt lat="51.215337" lon="4.482763">
        <ele>51.9091</ele>
        <time>1970-01-01T01:00:00Z</time>
      </trkpt>
      <trkpt lat="51.215271" lon="4.482668">
        <ele>51.9091</ele>
        <time>1970-01-01T01:00:00Z</time>
      </trkpt>
      <trkpt lat="51.215189" lon="4.482593">
        <ele>52.1818</ele>
        <time>1970-01-01T01:00:00Z</time>
      </trkpt>
      <trkpt lat="51.215105" lon="4.482542">
        <ele>52.6364</ele>
        <time>1970-01-01T01:00:00Z</time>
      </trkpt>
      <trkpt lat="51.21501" lon="4.482506">
        <ele>53.0909</ele>
        <time>1970-01-01T01:00:00Z</time>
      </trkpt>
      <trkpt lat="51.214913" lon="4.4825">
        <ele>53.3636</ele>
        <time>1970-01-01T01:00:00Z</time>
      </trkpt>
      <trkpt lat="51.21483" lon="4.482523">
        <ele>53.2727</ele>
        <time>1970-01-01T01:00:00Z</time>
      </trkpt>
      <trkpt lat="51.214754" lon="4.482616">
        <ele>52.7273</ele>
        <time>1970-01-01T01:00:00Z</time>
      </trkpt>
      <trkpt lat="51.214689" lon="4.482718">
        <ele>52.2727</ele>
        <time>1970-01-01T01:00:00Z</time>
      </trkpt>
      <trkpt lat="51.214628" lon="4.482829">
        <ele>51.9091</ele>
        <time>1970-01-01T01:00:00Z</time>
      </trkpt>
      <trkpt lat="51.214348" lon="4.483193">
        <ele>51.7273</ele>
        <time>1970-01-01T01:00:00Z</time>
      </trkpt>
      <trkpt lat="51.214359" lon="4.483332">
        <ele>51.6364</ele>
        <time>1970-01-01T01:00:00Z</time>
      </trkpt>
      <trkpt lat="51.214413" lon="4.483432">
        <ele>51.8182</ele>
        <time>1970-01-01T01:00:00Z</time>
      </trkpt>
      <trkpt lat="51.214486" lon="4.483543">
        <ele>51.8182</ele>
        <time>1970-01-01T01:00:00Z</time>
      </trkpt>
      <trkpt lat="51.214532" lon="4.483676">
        <ele>51.5455</ele>
        <time>1970-01-01T01:00:00Z</time>
      </trkpt>
      <trkpt lat="51.214565" lon="4.483814">
        <ele>51.3636</ele>
        <time>1970-01-01T01:00:00Z</time>
      </trkpt>
      <trkpt lat="51.214574" lon="4.483982">
        <ele>51.2727</ele>
        <time>1970-01-01T01:00:00Z</time>
      </trkpt>
      <trkpt lat="51.214581" lon="4.484134">
        <ele>51.4545</ele>
        <time>1970-01-01T01:00:00Z</time>
      </trkpt>
      <trkpt lat="51.214586" lon="4.484279">
        <ele>52</ele>
        <time>1970-01-01T01:00:00Z</time>
      </trkpt>
      <trkpt lat="51.214606" lon="4.484426">
        <ele>52.1818</ele>
        <time>1970-01-01T01:00:00Z</time>
      </trkpt>
      <trkpt lat="51.214628" lon="4.484574">
        <ele>52.2727</ele>
        <time>1970-01-01T01:00:00Z</time>
      </trkpt>
      <trkpt lat="51.214675" lon="4.484696">
        <ele>52.2727</ele>
        <time>1970-01-01T01:00:00Z</time>
      </trkpt>
      <trkpt lat="51.214738" lon="4.484819">
        <ele>52.0909</ele>
        <time>1970-01-01T01:00:00Z</time>
      </trkpt>
      <trkpt lat="51.21482" lon="4.484894">
        <ele>51.6364</ele>
        <time>1970-01-01T01:00:00Z</time>
      </trkpt>
      <trkpt lat="51.214906" lon="4.4849">
        <ele>51.2727</ele>
        <time>1970-01-01T01:00:00Z</time>
      </trkpt>
      <trkpt lat="51.215007" lon="4.484947">
        <ele>51.1818</ele>
        <time>1970-01-01T01:00:00Z</time>
      </trkpt>
      <trkpt lat="51.215101" lon="4.484935">
        <ele>50.9091</ele>
        <time>1970-01-01T01:00:00Z</time>
      </trkpt>
      <trkpt lat="51.215196" lon="4.484893">
        <ele>50.7273</ele>
        <time>1970-01-01T01:00:00Z</time>
      </trkpt>
      <trkpt lat="51.215269" lon="4.484816">
        <ele>50.6364</ele>
        <time>1970-01-01T01:00:00Z</time>
      </trkpt>
      <trkpt lat="51.21534" lon="4.484694">
        <ele>50.5455</ele>
        <time>1970-01-01T01:00:00Z</time>
      </trkpt>
      <trkpt lat="51.215377" lon="4.484542">
        <ele>50.6364</ele>
        <time>1970-01-01T01:00:00Z</time>
      </trkpt>
      <trkpt lat="51.215411" lon="4.484422">
        <ele>50.7273</ele>
        <time>1970-01-01T01:00:00Z</time>
      </trkpt>
      <trkpt lat="51.215435" lon="4.484266">
        <ele>50.8182</ele>
        <time>1970-01-01T01:00:00Z</time>
      </trkpt>
      <trkpt lat="51.215447" lon="4.48411">
        <ele>51</ele>
        <time>1970-01-01T01:00:00Z</time>
      </trkpt>
      <trkpt lat="51.215448" lon="4.483962">
        <ele>51.3636</ele>
        <time>1970-01-01T01:00:00Z</time>
      </trkpt>
      <trkpt lat="51.215453" lon="4.483828">
        <ele>51.7273</ele>
        <time>1970-01-01T01:00:00Z</time>
      </trkpt>
      <trkpt lat="51.215443" lon="4.48369">
        <ele>52</ele>
        <time>1970-01-01T01:00:00Z</time>
      </trkpt>
      <trkpt lat="51.21542" lon="4.48354">
        <ele>52.1818</ele>
        <time>1970-01-01T01:00:00Z</time>
      </trkpt>
      <trkpt lat="51.215421" lon="4.4834">
        <ele>52.2727</ele>
        <time>1970-01-01T01:00:00Z</time>
      </trkpt>
      <trkpt lat="51.215404" lon="4.483236">
        <ele>52.2727</ele>
        <time>1970-01-01T01:00:00Z</time>
      </trkpt>
      <trkpt lat="51.215389" lon="4.483078">
        <ele>52.3636</ele>
        <time>1970-01-01T01:00:00Z</time>
      </trkpt>
      <trkpt lat="51.215363" lon="4.482924">
        <ele>52.5455</ele>
        <time>1970-01-01T01:00:00Z</time>
      </trkpt>
      <trkpt lat="51.215314" lon="4.482797">
        <ele>52.9091</ele>
        <time>1970-01-01T01:00:00Z</time>
      </trkpt>
      <trkpt lat="51.215249" lon="4.482683">
        <ele>53.0909</ele>
        <time>1970-01-01T01:00:00Z</time>
      </trkpt>
      <trkpt lat="51.215174" lon="4.482593">
        <ele>53.2727</ele>
        <time>1970-01-01T01:00:00Z</time>
      </trkpt>
      <trkpt lat="51.215096" lon="4.48254">
        <ele>53.2727</ele>
        <time>1970-01-01T01:00:00Z</time>
      </trkpt>
      <trkpt lat="51.215012" lon="4.482513">
        <ele>53.3636</ele>
        <time>1970-01-01T01:00:00Z</time>
      </trkpt>
      <trkpt lat="51.214918" lon="4.482514">
        <ele>53.5455</ele>
        <time>1970-01-01T01:00:00Z</time>
      </trkpt>
      <trkpt lat="51.214839" lon="4.482551">
        <ele>53.8182</ele>
        <time>1970-01-01T01:00:00Z</time>
      </trkpt>
      <trkpt lat="51.214772" lon="4.482655">
        <ele>54</ele>
        <time>1970-01-01T01:00:00Z</time>
      </trkpt>
      <trkpt lat="51.214713" lon="4.482748">
        <ele>54.1818</ele>
        <time>1970-01-01T01:00:00Z</time>
      </trkpt>
      <trkpt lat="51.214636" lon="4.48286">
        <ele>54.1818</ele>
        <time>1970-01-01T01:00:00Z</time>
      </trkpt>
      <trkpt lat="51.214591" lon="4.482974">
        <ele>54.0909</ele>
        <time>1970-01-01T01:00:00Z</time>
      </trkpt>
      <trkpt lat="51.21454" lon="4.483089">
        <ele>53.8182</ele>
        <time>1970-01-01T01:00:00Z</time>
      </trkpt>
      <trkpt lat="51.214539" lon="4.483253">
        <ele>54.1818</ele>
        <time>1970-01-01T01:00:00Z</time>
      </trkpt>
      <trkpt lat="51.214538" lon="4.483385">
        <ele>54.3636</ele>
        <time>1970-01-01T01:00:00Z</time>
      </trkpt>
      <trkpt lat="51.214541" lon="4.483527">
        <ele>54.4545</ele>
        <time>1970-01-01T01:00:00Z</time>
      </trkpt>
      <trkpt lat="51.214541" lon="4.483665">
        <ele>54.4545</ele>
        <time>1970-01-01T01:00:00Z</time>
      </trkpt>
      <trkpt lat="51.214555" lon="4.483819">
        <ele>54.2727</ele>
        <time>1970-01-01T01:00:00Z</time>
      </trkpt>
      <trkpt lat="51.214563" lon="4.48398">
        <ele>53.2727</ele>
        <time>1970-01-01T01:00:00Z</time>
      </trkpt>
      <trkpt lat="51.214573" lon="4.484122">
        <ele>52.6364</ele>
        <time>1970-01-01T01:00:00Z</time>
      </trkpt>
      <trkpt lat="51.214584" lon="4.484266">
        <ele>52.2727</ele>
        <time>1970-01-01T01:00:00Z</time>
      </trkpt>
      <trkpt lat="51.214612" lon="4.484392">
        <ele>52.0909</ele>
        <time>1970-01-01T01:00:00Z</time>
      </trkpt>
      <trkpt lat="51.214669" lon="4.484535">
        <ele>52</ele>
        <time>1970-01-01T01:00:00Z</time>
      </trkpt>
      <trkpt lat="51.215392" lon="4.483064">
        <ele>52.1818</ele>
        <time>1970-01-01T01:00:00Z</time>
      </trkpt>
      <trkpt lat="51.215377" lon="4.482936">
        <ele>52</ele>
        <time>1970-01-01T01:00:00Z</time>
      </trkpt>
      <trkpt lat="51.215335" lon="4.482797">
        <ele>52</ele>
        <time>1970-01-01T01:00:00Z</time>
      </trkpt>
      <trkpt lat="51.215268" lon="4.482697">
        <ele>51.9091</ele>
        <time>1970-01-01T01:00:00Z</time>
      </trkpt>
      <trkpt lat="51.215199" lon="4.482627">
        <ele>51.8182</ele>
        <time>1970-01-01T01:00:00Z</time>
      </trkpt>
      <trkpt lat="51.215112" lon="4.48256">
        <ele>51.8182</ele>
        <time>1970-01-01T01:00:00Z</time>
      </trkpt>
      <trkpt lat="51.215022" lon="4.482517">
        <ele>52.6364</ele>
        <time>1970-01-01T01:00:00Z</time>
      </trkpt>
      <trkpt lat="51.214941" lon="4.482536">
        <ele>53.1818</ele>
        <time>1970-01-01T01:00:00Z</time>
      </trkpt>
      <trkpt lat="51.214858" lon="4.482552">
        <ele>53.4545</ele>
        <time>1970-01-01T01:00:00Z</time>
      </trkpt>
      <trkpt lat="51.21478" lon="4.482599">
        <ele>53.6364</ele>
        <time>1970-01-01T01:00:00Z</time>
      </trkpt>
      <trkpt lat="51.214708" lon="4.48271">
        <ele>54</ele>
        <time>1970-01-01T01:00:00Z</time>
      </trkpt>
      <trkpt lat="51.214643" lon="4.482806">
        <ele>53.9091</ele>
        <time>1970-01-01T01:00:00Z</time>
      </trkpt>
      <trkpt lat="51.214603" lon="4.48293">
        <ele>53.9091</ele>
        <time>1970-01-01T01:00:00Z</time>
      </trkpt>
      <trkpt lat="51.214566" lon="4.483065">
        <ele>53.6364</ele>
        <time>1970-01-01T01:00:00Z</time>
      </trkpt>
      <trkpt lat="51.214549" lon="4.483208">
        <ele>53.5455</ele>
        <time>1970-01-01T01:00:00Z</time>
      </trkpt>
      <trkpt lat="51.21456" lon="4.483347">
        <ele>53.6364</ele>
        <time>1970-01-01T01:00:00Z</time>
      </trkpt>
      <trkpt lat="51.214585" lon="4.48348">
        <ele>53.6364</ele>
        <time>1970-01-01T01:00:00Z</time>
      </trkpt>
      <trkpt lat="51.215319" lon="4.4828">
        <ele>53.8182</ele>
        <time>1970-01-01T01:00:00Z</time>
      </trkpt>
      <trkpt lat="51.215261" lon="4.482702">
        <ele>53.6364</ele>
        <time>1970-01-01T01:00:00Z</time>
      </trkpt>
      <trkpt lat="51.215181" lon="4.48261">
        <ele>53.4545</ele>
        <time>1970-01-01T01:00:00Z</time>
      </trkpt>
      <trkpt lat="51.215094" lon="4.482571">
        <ele>53.2727</ele>
        <time>1970-01-01T01:00:00Z</time>
      </trkpt>
      <trkpt lat="51.215006" lon="4.482525">
        <ele>53</ele>
        <time>1970-01-01T01:00:00Z</time>
      </trkpt>
      <trkpt lat="51.214912" lon="4.482525">
        <ele>52.8182</ele>
        <time>1970-01-01T01:00:00Z</time>
      </trkpt>
      <trkpt lat="51.214827" lon="4.482573">
        <ele>52.4545</ele>
        <time>1970-01-01T01:00:00Z</time>
      </trkpt>
      <trkpt lat="51.214753" lon="4.482635">
        <ele>52.2727</ele>
        <time>1970-01-01T01:00:00Z</time>
      </trkpt>
      <trkpt lat="51.214689" lon="4.482721">
        <ele>52.0909</ele>
        <time>1970-01-01T01:00:00Z</time>
      </trkpt>
      <trkpt lat="51.214637" lon="4.482837">
        <ele>51.9091</ele>
        <time>1970-01-01T01:00:00Z</time>
      </trkpt>
      <trkpt lat="51.214598" lon="4.482959">
        <ele>51.7273</ele>
        <time>1970-01-01T01:00:00Z</time>
      </trkpt>
      <trkpt lat="51.214542" lon="4.483076">
        <ele>51.3636</ele>
        <time>1970-01-01T01:00:00Z</time>
      </trkpt>
      <trkpt lat="51.214529" lon="4.483228">
        <ele>51.0909</ele>
        <time>1970-01-01T01:00:00Z</time>
      </trkpt>
      <trkpt lat="51.214538" lon="4.48337">
        <ele>51.0909</ele>
        <time>1970-01-01T01:00:00Z</time>
      </trkpt>
      <trkpt lat="51.214554" lon="4.483508">
        <ele>51.1818</ele>
        <time>1970-01-01T01:00:00Z</time>
      </trkpt>
      <trkpt lat="51.21456" lon="4.483674">
        <ele>51.0909</ele>
        <time>1970-01-01T01:00:00Z</time>
      </trkpt>
      <trkpt lat="51.214575" lon="4.483802">
        <ele>51</ele>
        <time>1970-01-01T01:00:00Z</time>
      </trkpt>
      <trkpt lat="51.214565" lon="4.483953">
        <ele>50.8182</ele>
        <time>1970-01-01T01:00:00Z</time>
      </trkpt>
      <trkpt lat="51.214578" lon="4.48412">
        <ele>50.7273</ele>
        <time>1970-01-01T01:00:00Z</time>
      </trkpt>
      <trkpt lat="51.214589" lon="4.484285">
        <ele>50.6364</ele>
        <time>1970-01-01T01:00:00Z</time>
      </trkpt>
      <trkpt lat="51.214622" lon="4.484432">
        <ele>50.2727</ele>
        <time>1970-01-01T01:00:00Z</time>
      </trkpt>
      <trkpt lat="51.214662" lon="4.484568">
        <ele>50</ele>
        <time>1970-01-01T01:00:00Z</time>
      </trkpt>
      <trkpt lat="51.214718" lon="4.484708">
        <ele>49.7273</ele>
        <time>1970-01-01T01:00:00Z</time>
      </trkpt>
      <trkpt lat="51.214782" lon="4.484818">
        <ele>49.8182</ele>
        <time>1970-01-01T01:00:00Z</time>
      </trkpt>
      <trkpt lat="51.214858" lon="4.4849">
        <ele>49.8182</ele>
        <time>1970-01-01T01:00:00Z</time>
      </trkpt>
      <trkpt lat="51.214965" lon="4.484937">
        <ele>49.7273</ele>
        <time>1970-01-01T01:00:00Z</time>
      </trkpt>
      <trkpt lat="51.215056" lon="4.484932">
        <ele>49.8182</ele>
        <time>1970-01-01T01:00:00Z</time>
      </trkpt>
      <trkpt lat="51.215146" lon="4.484922">
        <ele>50</ele>
        <time>1970-01-01T01:00:00Z</time>
      </trkpt>
      <trkpt lat="51.215223" lon="4.484876">
        <ele>50.3636</ele>
        <time>1970-01-01T01:00:00Z</time>
      </trkpt>
      <trkpt lat="51.215299" lon="4.484784">
        <ele>50.9091</ele>
        <time>1970-01-01T01:00:00Z</time>
      </trkpt>
      <trkpt lat="51.215367" lon="4.484647">
        <ele>52.0909</ele>
        <time>1970-01-01T01:00:00Z</time>
      </trkpt>
      <trkpt lat="51.215401" lon="4.484525">
        <ele>52.7273</ele>
        <time>1970-01-01T01:00:00Z</time>
      </trkpt>
      <trkpt lat="51.215426" lon="4.484398">
        <ele>53.1818</ele>
        <time>1970-01-01T01:00:00Z</time>
      </trkpt>
      <trkpt lat="51.215446" lon="4.484239">
        <ele>53.5455</ele>
        <time>1970-01-01T01:00:00Z</time>
      </trkpt>
      <trkpt lat="51.215435" lon="4.484106">
        <ele>53.6364</ele>
        <time>1970-01-01T01:00:00Z</time>
      </trkpt>
      <trkpt lat="51.214799" lon="4.482588">
        <ele>53.4545</ele>
        <time>1970-01-01T01:00:00Z</time>
      </trkpt>
      <trkpt lat="51.214738" lon="4.482681">
        <ele>53.1818</ele>
        <time>1970-01-01T01:00:00Z</time>
      </trkpt>
      <trkpt lat="51.214672" lon="4.482773">
        <ele>52.8182</ele>
        <time>1970-01-01T01:00:00Z</time>
      </trkpt>
      <trkpt lat="51.21463" lon="4.482889">
        <ele>52.6364</ele>
        <time>1970-01-01T01:00:00Z</time>
      </trkpt>
      <trkpt lat="51.21459" lon="4.483021">
        <ele>52.5455</ele>
        <time>1970-01-01T01:00:00Z</time>
      </trkpt>
      <trkpt lat="51.214566" lon="4.483158">
        <ele>52.5455</ele>
        <time>1970-01-01T01:00:00Z</time>
      </trkpt>
      <trkpt lat="51.214537" lon="4.483281">
        <ele>52</ele>
        <time>1970-01-01T01:00:00Z</time>
      </trkpt>
      <trkpt lat="51.214553" lon="4.483429">
        <ele>52</ele>
        <time>1970-01-01T01:00:00Z</time>
      </trkpt>
      <trkpt lat="51.21456" lon="4.483569">
        <ele>52.4545</ele>
        <time>1970-01-01T01:00:00Z</time>
      </trkpt>
      <trkpt lat="51.214581" lon="4.48371">
        <ele>52.8182</ele>
        <time>1970-01-01T01:00:00Z</time>
      </trkpt>
      <trkpt lat="51.214585" lon="4.483862">
        <ele>53.0909</ele>
        <time>1970-01-01T01:00:00Z</time>
      </trkpt>
      <trkpt lat="51.214585" lon="4.484008">
        <ele>53.3636</ele>
        <time>1970-01-01T01:00:00Z</time>
      </trkpt>
      <trkpt lat="51.214603" lon="4.484156">
        <ele>53.7273</ele>
        <time>1970-01-01T01:00:00Z</time>
      </trkpt>
      <trkpt lat="51.214628" lon="4.484292">
        <ele>53.7273</ele>
        <time>1970-01-01T01:00:00Z</time>
      </trkpt>
      <trkpt lat="51.214637" lon="4.484447">
        <ele>53.5455</ele>
        <time>1970-01-01T01:00:00Z</time>
      </trkpt>
      <trkpt lat="51.214673" lon="4.484592">
        <ele>53.2727</ele>
        <time>1970-01-01T01:00:00Z</time>
      </trkpt>
      <trkpt lat="51.214739" lon="4.484703">
        <ele>52.6364</ele>
        <time>1970-01-01T01:00:00Z</time>
      </trkpt>
      <trkpt lat="51.2148" lon="4.484791">
        <ele>51.8182</ele>
        <time>1970-01-01T01:00:00Z</time>
      </trkpt>
      <trkpt lat="51.21488" lon="4.484842">
        <ele>51</ele>
        <time>1970-01-01T01:00:00Z</time>
      </trkpt>
      <trkpt lat="51.214971" lon="4.484907">
        <ele>49.9091</ele>
        <time>1970-01-01T01:00:00Z</time>
      </trkpt>
      <trkpt lat="51.215052" lon="4.484932">
        <ele>48.9091</ele>
        <time>1970-01-01T01:00:00Z</time>
      </trkpt>
      <trkpt lat="51.21515" lon="4.484913">
        <ele>48.3636</ele>
        <time>1970-01-01T01:00:00Z</time>
      </trkpt>
      <trkpt lat="51.215251" lon="4.484879">
        <ele>48.0909</ele>
        <time>1970-01-01T01:00:00Z</time>
      </trkpt>
      <trkpt lat="51.215312" lon="4.484792">
        <ele>47.9091</ele>
        <time>1970-01-01T01:00:00Z</time>
      </trkpt>
      <trkpt lat="51.215357" lon="4.484673">
        <ele>48.1818</ele>
        <time>1970-01-01T01:00:00Z</time>
      </trkpt>
      <trkpt lat="51.215421" lon="4.484571">
        <ele>48.4545</ele>
        <time>1970-01-01T01:00:00Z</time>
      </trkpt>
      <trkpt lat="51.215454" lon="4.484426">
        <ele>48.6364</ele>
        <time>1970-01-01T01:00:00Z</time>
      </trkpt>
      <trkpt lat="51.215462" lon="4.484284">
        <ele>48.7273</ele>
        <time>1970-01-01T01:00:00Z</time>
      </trkpt>
      <trkpt lat="51.21546" lon="4.484122">
        <ele>48.7273</ele>
        <time>1970-01-01T01:00:00Z</time>
      </trkpt>
      <trkpt lat="51.215462" lon="4.483979">
        <ele>48.8182</ele>
        <time>1970-01-01T01:00:00Z</time>
      </trkpt>
      <trkpt lat="51.215449" lon="4.483828">
        <ele>49</ele>
        <time>1970-01-01T01:00:00Z</time>
      </trkpt>
      <trkpt lat="51.215444" lon="4.483686">
        <ele>49.2727</ele>
        <time>1970-01-01T01:00:00Z</time>
      </trkpt>
      <trkpt lat="51.215449" lon="4.483531">
        <ele>49.3636</ele>
        <time>1970-01-01T01:00:00Z</time>
      </trkpt>
      <trkpt lat="51.215444" lon="4.483401">
        <ele>49.4545</ele>
        <time>1970-01-01T01:00:00Z</time>
      </trkpt>
      <trkpt lat="51.215448" lon="4.483259">
        <ele>49.3636</ele>
        <time>1970-01-01T01:00:00Z</time>
      </trkpt>
      <trkpt lat="51.215441" lon="4.483115">
        <ele>49</ele>
        <time>1970-01-01T01:00:00Z</time>
      </trkpt>
      <trkpt lat="51.215426" lon="4.482957">
        <ele>48.7273</ele>
        <time>1970-01-01T01:00:00Z</time>
      </trkpt>
      <trkpt lat="51.215379" lon="4.48285">
        <ele>48.6364</ele>
        <time>1970-01-01T01:00:00Z</time>
      </trkpt>
      <trkpt lat="51.215324" lon="4.482748">
        <ele>48.8182</ele>
        <time>1970-01-01T01:00:00Z</time>
      </trkpt>
      <trkpt lat="51.215255" lon="4.482663">
        <ele>49.1818</ele>
        <time>1970-01-01T01:00:00Z</time>
      </trkpt>
      <trkpt lat="51.215187" lon="4.482582">
        <ele>49.3636</ele>
        <time>1970-01-01T01:00:00Z</time>
      </trkpt>
      <trkpt lat="51.215109" lon="4.482515">
        <ele>49.5455</ele>
        <time>1970-01-01T01:00:00Z</time>
      </trkpt>
      <trkpt lat="51.215021" lon="4.482501">
        <ele>49.7273</ele>
        <time>1970-01-01T01:00:00Z</time>
      </trkpt>
      <trkpt lat="51.214923" lon="4.482525">
        <ele>49.9091</ele>
        <time>1970-01-01T01:00:00Z</time>
      </trkpt>
      <trkpt lat="51.214826" lon="4.482583">
        <ele>50.0909</ele>
        <time>1970-01-01T01:00:00Z</time>
      </trkpt>
      <trkpt lat="51.21476" lon="4.482683">
        <ele>50.5455</ele>
        <time>1970-01-01T01:00:00Z</time>
      </trkpt>
      <trkpt lat="51.214701" lon="4.482786">
        <ele>51.1818</ele>
        <time>1970-01-01T01:00:00Z</time>
      </trkpt>
      <trkpt lat="51.214635" lon="4.482875">
        <ele>51.7273</ele>
        <time>1970-01-01T01:00:00Z</time>
      </trkpt>
      <trkpt lat="51.214595" lon="4.482997">
        <ele>52</ele>
        <time>1970-01-01T01:00:00Z</time>
      </trkpt>
      <trkpt lat="51.214574" lon="4.483153">
        <ele>52.0909</ele>
        <time>1970-01-01T01:00:00Z</time>
      </trkpt>
      <trkpt lat="51.214573" lon="4.483313">
        <ele>52.1818</ele>
        <time>1970-01-01T01:00:00Z</time>
      </trkpt>
      <trkpt lat="51.214572" lon="4.483442">
        <ele>52.4545</ele>
        <time>1970-01-01T01:00:00Z</time>
      </trkpt>
      <trkpt lat="51.214601" lon="4.483597">
        <ele>52.7273</ele>
        <time>1970-01-01T01:00:00Z</time>
      </trkpt>
      <trkpt lat="51.214604" lon="4.483739">
        <ele>53</ele>
        <time>1970-01-01T01:00:00Z</time>
      </trkpt>
      <trkpt lat="51.214614" lon="4.483899">
        <ele>53.2727</ele>
        <time>1970-01-01T01:00:00Z</time>
      </trkpt>
      <trkpt lat="51.214625" lon="4.484028">
        <ele>53.1818</ele>
        <time>1970-01-01T01:00:00Z</time>
      </trkpt>
      <trkpt lat="51.214641" lon="4.484155">
        <ele>53</ele>
        <time>1970-01-01T01:00:00Z</time>
      </trkpt>
      <trkpt lat="51.214643" lon="4.484298">
        <ele>52.5455</ele>
        <time>1970-01-01T01:00:00Z</time>
      </trkpt>
      <trkpt lat="51.214649" lon="4.484432">
        <ele>52.1818</ele>
        <time>1970-01-01T01:00:00Z</time>
      </trkpt>
      <trkpt lat="51.21467" lon="4.484587">
        <ele>51.7273</ele>
        <time>1970-01-01T01:00:00Z</time>
      </trkpt>
      <trkpt lat="51.214722" lon="4.484696">
        <ele>51.3636</ele>
        <time>1970-01-01T01:00:00Z</time>
      </trkpt>
      <trkpt lat="51.214807" lon="4.484796">
        <ele>50.9091</ele>
        <time>1970-01-01T01:00:00Z</time>
      </trkpt>
      <trkpt lat="51.214882" lon="4.484868">
        <ele>50.2727</ele>
        <time>1970-01-01T01:00:00Z</time>
      </trkpt>
      <trkpt lat="51.214973" lon="4.484885">
        <ele>49.1818</ele>
        <time>1970-01-01T01:00:00Z</time>
      </trkpt>
      <trkpt lat="51.215068" lon="4.484886">
        <ele>48.3636</ele>
        <time>1970-01-01T01:00:00Z</time>
      </trkpt>
      <trkpt lat="51.215166" lon="4.484876">
        <ele>47.7273</ele>
        <time>1970-01-01T01:00:00Z</time>
      </trkpt>
      <trkpt lat="51.215248" lon="4.484841">
        <ele>47.5455</ele>
        <time>1970-01-01T01:00:00Z</time>
      </trkpt>
      <trkpt lat="51.215337" lon="4.484759">
        <ele>47.2727</ele>
        <time>1970-01-01T01:00:00Z</time>
      </trkpt>
      <trkpt lat="51.215381" lon="4.484614">
        <ele>47.3636</ele>
        <time>1970-01-01T01:00:00Z</time>
      </trkpt>
      <trkpt lat="51.215417" lon="4.48447">
        <ele>47.4545</ele>
        <time>1970-01-01T01:00:00Z</time>
      </trkpt>
      <trkpt lat="51.215458" lon="4.484336">
        <ele>47.5455</ele>
        <time>1970-01-01T01:00:00Z</time>
      </trkpt>
      <trkpt lat="51.215438" lon="4.484205">
        <ele>47.6364</ele>
        <time>1970-01-01T01:00:00Z</time>
      </trkpt>
      <trkpt lat="51.215432" lon="4.484057">
        <ele>47.8182</ele>
        <time>1970-01-01T01:00:00Z</time>
      </trkpt>
      <trkpt lat="51.215424" lon="4.483916">
        <ele>47.9091</ele>
        <time>1970-01-01T01:00:00Z</time>
      </trkpt>
      <trkpt lat="51.215434" lon="4.483766">
        <ele>48.4545</ele>
        <time>1970-01-01T01:00:00Z</time>
      </trkpt>
      <trkpt lat="51.215433" lon="4.483611">
        <ele>48.7273</ele>
        <time>1970-01-01T01:00:00Z</time>
      </trkpt>
      <trkpt lat="51.215433" lon="4.483443">
        <ele>48.6364</ele>
        <time>1970-01-01T01:00:00Z</time>
      </trkpt>
      <trkpt lat="51.21544" lon="4.483313">
        <ele>48.3636</ele>
        <time>1970-01-01T01:00:00Z</time>
      </trkpt>
      <trkpt lat="51.215426" lon="4.483175">
        <ele>48.2727</ele>
        <time>1970-01-01T01:00:00Z</time>
      </trkpt>
      <trkpt lat="51.215397" lon="4.483024">
        <ele>48.0909</ele>
        <time>1970-01-01T01:00:00Z</time>
      </trkpt>
      <trkpt lat="51.215374" lon="4.482879">
        <ele>47.8182</ele>
        <time>1970-01-01T01:00:00Z</time>
      </trkpt>
      <trkpt lat="51.215317" lon="4.482755">
        <ele>47.7273</ele>
        <time>1970-01-01T01:00:00Z</time>
      </trkpt>
      <trkpt lat="51.215264" lon="4.482646">
        <ele>47.7273</ele>
        <time>1970-01-01T01:00:00Z</time>
      </trkpt>
      <trkpt lat="51.215194" lon="4.482571">
        <ele>47.7273</ele>
        <time>1970-01-01T01:00:00Z</time>
      </trkpt>
      <trkpt lat="51.215095" lon="4.482523">
        <ele>47.8182</ele>
        <time>1970-01-01T01:00:00Z</time>
      </trkpt>
      <trkpt lat="51.215" lon="4.482507">
        <ele>48</ele>
        <time>1970-01-01T01:00:00Z</time>
      </trkpt>
      <trkpt lat="51.214903" lon="4.48256">
        <ele>48.0909</ele>
        <time>1970-01-01T01:00:00Z</time>
      </trkpt>
      <trkpt lat="51.214818" lon="4.482585">
        <ele>48.5455</ele>
        <time>1970-01-01T01:00:00Z</time>
      </trkpt>
      <trkpt lat="51.214742" lon="4.482668">
        <ele>49</ele>
        <time>1970-01-01T01:00:00Z</time>
      </trkpt>
      <trkpt lat="51.214689" lon="4.482767">
        <ele>49.3636</ele>
        <time>1970-01-01T01:00:00Z</time>
      </trkpt>
      <trkpt lat="51.214631" lon="4.482858">
        <ele>49.3636</ele>
        <time>1970-01-01T01:00:00Z</time>
      </trkpt>
      <trkpt lat="51.214612" lon="4.483007">
        <ele>49.5455</ele>
        <time>1970-01-01T01:00:00Z</time>
      </trkpt>
      <trkpt lat="51.214584" lon="4.483136">
        <ele>49.8182</ele>
        <time>1970-01-01T01:00:00Z</time>
      </trkpt>
      <trkpt lat="51.21458" lon="4.483299">
        <ele>50.1818</ele>
        <time>1970-01-01T01:00:00Z</time>
      </trkpt>
      <trkpt lat="51.214565" lon="4.483433">
        <ele>50.5455</ele>
        <time>1970-01-01T01:00:00Z</time>
      </trkpt>
      <trkpt lat="51.214588" lon="4.483559">
        <ele>50.9091</ele>
        <time>1970-01-01T01:00:00Z</time>
      </trkpt>
      <trkpt lat="51.214608" lon="4.483716">
        <ele>51.0909</ele>
        <time>1970-01-01T01:00:00Z</time>
      </trkpt>
      <trkpt lat="51.214608" lon="4.483849">
        <ele>51</ele>
        <time>1970-01-01T01:00:00Z</time>
      </trkpt>
      <trkpt lat="51.214591" lon="4.483998">
        <ele>50.8182</ele>
        <time>1970-01-01T01:00:00Z</time>
      </trkpt>
      <trkpt lat="51.214614" lon="4.484145">
        <ele>50.6364</ele>
        <time>1970-01-01T01:00:00Z</time>
      </trkpt>
      <trkpt lat="51.214615" lon="4.484289">
        <ele>50.4545</ele>
        <time>1970-01-01T01:00:00Z</time>
      </trkpt>
      <trkpt lat="51.214615" lon="4.484437">
        <ele>50.2727</ele>
        <time>1970-01-01T01:00:00Z</time>
      </trkpt>
      <trkpt lat="51.214662" lon="4.484557">
        <ele>50.1818</ele>
        <time>1970-01-01T01:00:00Z</time>
      </trkpt>
      <trkpt lat="51.214716" lon="4.484659">
        <ele>50</ele>
        <time>1970-01-01T01:00:00Z</time>
      </trkpt>
      <trkpt lat="51.214784" lon="4.48477">
        <ele>49.7273</ele>
        <time>1970-01-01T01:00:00Z</time>
      </trkpt>
      <trkpt lat="51.21485" lon="4.484852">
        <ele>49.4545</ele>
        <time>1970-01-01T01:00:00Z</time>
      </trkpt>
      <trkpt lat="51.214941" lon="4.484903">
        <ele>49.3636</ele>
        <time>1970-01-01T01:00:00Z</time>
      </trkpt>
      <trkpt lat="51.21503" lon="4.484917">
        <ele>49.2727</ele>
        <time>1970-01-01T01:00:00Z</time>
      </trkpt>
      <trkpt lat="51.215128" lon="4.48488">
        <ele>49.5455</ele>
        <time>1970-01-01T01:00:00Z</time>
      </trkpt>
      <trkpt lat="51.215212" lon="4.484829">
        <ele>49.8182</ele>
        <time>1970-01-01T01:00:00Z</time>
      </trkpt>
      <trkpt lat="51.215286" lon="4.484757">
        <ele>50</ele>
        <time>1970-01-01T01:00:00Z</time>
      </trkpt>
      <trkpt lat="51.215357" lon="4.484678">
        <ele>50.0909</ele>
        <time>1970-01-01T01:00:00Z</time>
      </trkpt>
      <trkpt lat="51.21541" lon="4.48458">
        <ele>50.3636</ele>
        <time>1970-01-01T01:00:00Z</time>
      </trkpt>
      <trkpt lat="51.215468" lon="4.484451">
        <ele>50.3636</ele>
        <time>1970-01-01T01:00:00Z</time>
      </trkpt>
      <trkpt lat="51.215502" lon="4.484312">
        <ele>50.3636</ele>
        <time>1970-01-01T01:00:00Z</time>
      </trkpt>
      <trkpt lat="51.215485" lon="4.484161">
        <ele>50.0909</ele>
        <time>1970-01-01T01:00:00Z</time>
      </trkpt>
      <trkpt lat="51.21548" lon="4.484024">
        <ele>50</ele>
        <time>1970-01-01T01:00:00Z</time>
      </trkpt>
      <trkpt lat="51.215462" lon="4.483897">
        <ele>50</ele>
        <time>1970-01-01T01:00:00Z</time>
      </trkpt>
      <trkpt lat="51.215451" lon="4.483734">
        <ele>49.6364</ele>
        <time>1970-01-01T01:00:00Z</time>
      </trkpt>
      <trkpt lat="51.215452" lon="4.483573">
        <ele>49.4545</ele>
        <time>1970-01-01T01:00:00Z</time>
      </trkpt>
      <trkpt lat="51.21542" lon="4.483435">
        <ele>49.1818</ele>
        <time>1970-01-01T01:00:00Z</time>
      </trkpt>
      <trkpt lat="51.215422" lon="4.483302">
        <ele>48.9091</ele>
        <time>1970-01-01T01:00:00Z</time>
      </trkpt>
      <trkpt lat="51.215428" lon="4.483148">
        <ele>48.3636</ele>
        <time>1970-01-01T01:00:00Z</time>
      </trkpt>
      <trkpt lat="51.21539" lon="4.483007">
        <ele>48.1818</ele>
        <time>1970-01-01T01:00:00Z</time>
      </trkpt>
      <trkpt lat="51.215379" lon="4.482872">
        <ele>48.0909</ele>
        <time>1970-01-01T01:00:00Z</time>
      </trkpt>
      <trkpt lat="51.215335" lon="4.482738">
        <ele>48.0909</ele>
        <time>1970-01-01T01:00:00Z</time>
      </trkpt>
      <trkpt lat="51.215277" lon="4.482618">
        <ele>48.0909</ele>
        <time>1970-01-01T01:00:00Z</time>
      </trkpt>
      <trkpt lat="51.215192" lon="4.482556">
        <ele>47.9091</ele>
        <time>1970-01-01T01:00:00Z</time>
      </trkpt>
      <trkpt lat="51.215104" lon="4.482535">
        <ele>47.6364</ele>
        <time>1970-01-01T01:00:00Z</time>
      </trkpt>
      <trkpt lat="51.215004" lon="4.482501">
        <ele>47.5455</ele>
        <time>1970-01-01T01:00:00Z</time>
      </trkpt>
      <trkpt lat="51.214908" lon="4.482527">
        <ele>47.5455</ele>
        <time>1970-01-01T01:00:00Z</time>
      </trkpt>
      <trkpt lat="51.214824" lon="4.482549">
        <ele>47.4545</ele>
        <time>1970-01-01T01:00:00Z</time>
      </trkpt>
      <trkpt lat="51.214743" lon="4.482624">
        <ele>47.4545</ele>
        <time>1970-01-01T01:00:00Z</time>
      </trkpt>
      <trkpt lat="51.214669" lon="4.482724">
        <ele>47.8182</ele>
        <time>1970-01-01T01:00:00Z</time>
      </trkpt>
      <trkpt lat="51.214609" lon="4.482835">
        <ele>47.9091</ele>
        <time>1970-01-01T01:00:00Z</time>
      </trkpt>
      <trkpt lat="51.214579" lon="4.48296">
        <ele>47.8182</ele>
        <time>1970-01-01T01:00:00Z</time>
      </trkpt>
      <trkpt lat="51.214538" lon="4.483106">
        <ele>47.5455</ele>
        <time>1970-01-01T01:00:00Z</time>
      </trkpt>
      <trkpt lat="51.214552" lon="4.483261">
        <ele>47.5455</ele>
        <time>1970-01-01T01:00:00Z</time>
      </trkpt>
      <trkpt lat="51.214556" lon="4.483398">
        <ele>47.7273</ele>
        <time>1970-01-01T01:00:00Z</time>
      </trkpt>
      <trkpt lat="51.214563" lon="4.483553">
        <ele>47.7273</ele>
        <time>1970-01-01T01:00:00Z</time>
      </trkpt>
      <trkpt lat="51.214584" lon="4.483713">
        <ele>47.7273</ele>
        <time>1970-01-01T01:00:00Z</time>
      </trkpt>
      <trkpt lat="51.2146" lon="4.483876">
        <ele>47.1818</ele>
        <time>1970-01-01T01:00:00Z</time>
      </trkpt>
      <trkpt lat="51.214589" lon="4.48401">
        <ele>46.8182</ele>
        <time>1970-01-01T01:00:00Z</time>
      </trkpt>
      <trkpt lat="51.214609" lon="4.484166">
        <ele>46.5455</ele>
        <time>1970-01-01T01:00:00Z</time>
      </trkpt>
      <trkpt lat="51.214627" lon="4.484334">
        <ele>46.1818</ele>
        <time>1970-01-01T01:00:00Z</time>
      </trkpt>
      <trkpt lat="51.214649" lon="4.484462">
        <ele>45.8182</ele>
        <time>1970-01-01T01:00:00Z</time>
      </trkpt>
      <trkpt lat="51.214699" lon="4.484613">
        <ele>45.7273</ele>
        <time>1970-01-01T01:00:00Z</time>
      </trkpt>
      <trkpt lat="51.214751" lon="4.484723">
        <ele>45.7273</ele>
        <time>1970-01-01T01:00:00Z</time>
      </trkpt>
      <trkpt lat="51.214829" lon="4.484818">
        <ele>45.8182</ele>
        <time>1970-01-01T01:00:00Z</time>
      </trkpt>
      <trkpt lat="51.214932" lon="4.484859">
        <ele>45.6364</ele>
        <time>1970-01-01T01:00:00Z</time>
      </trkpt>
      <trkpt lat="51.215035" lon="4.484857">
        <ele>45.6364</ele>
        <time>1970-01-01T01:00:00Z</time>
      </trkpt>
      <trkpt lat="51.215141" lon="4.484852">
        <ele>45.7273</ele>
        <time>1970-01-01T01:00:00Z</time>
      </trkpt>
      <trkpt lat="51.215238" lon="4.484807">
        <ele>46.2727</ele>
        <time>1970-01-01T01:00:00Z</time>
      </trkpt>
      <trkpt lat="51.215314" lon="4.484741">
        <ele>46.7273</ele>
        <time>1970-01-01T01:00:00Z</time>
      </trkpt>
      <trkpt lat="51.215371" lon="4.48461">
        <ele>47.3636</ele>
        <time>1970-01-01T01:00:00Z</time>
      </trkpt>
      <trkpt lat="51.21544" lon="4.484495">
        <ele>48</ele>
        <time>1970-01-01T01:00:00Z</time>
      </trkpt>
      <trkpt lat="51.215493" lon="4.484365">
        <ele>48.6364</ele>
        <time>1970-01-01T01:00:00Z</time>
      </trkpt>
      <trkpt lat="51.215496" lon="4.484216">
        <ele>49</ele>
        <time>1970-01-01T01:00:00Z</time>
      </trkpt>
      <trkpt lat="51.215489" lon="4.484052">
        <ele>49.2727</ele>
        <time>1970-01-01T01:00:00Z</time>
      </trkpt>
      <trkpt lat="51.215485" lon="4.483913">
        <ele>49.3636</ele>
        <time>1970-01-01T01:00:00Z</time>
      </trkpt>
      <trkpt lat="51.215494" lon="4.483749">
        <ele>49.5455</ele>
        <time>1970-01-01T01:00:00Z</time>
      </trkpt>
      <trkpt lat="51.215502" lon="4.483593">
        <ele>49.6364</ele>
        <time>1970-01-01T01:00:00Z</time>
      </trkpt>
      <trkpt lat="51.215494" lon="4.483435">
        <ele>49.8182</ele>
        <time>1970-01-01T01:00:00Z</time>
      </trkpt>
      <trkpt lat="51.215497" lon="4.483302">
        <ele>49.8182</ele>
        <time>1970-01-01T01:00:00Z</time>
      </trkpt>
      <trkpt lat="51.215478" lon="4.483146">
        <ele>49.5455</ele>
        <time>1970-01-01T01:00:00Z</time>
      </trkpt>
      <trkpt lat="51.215455" lon="4.483016">
        <ele>49.1818</ele>
        <time>1970-01-01T01:00:00Z</time>
      </trkpt>
      <trkpt lat="51.21542" lon="4.482897">
        <ele>48.9091</ele>
        <time>1970-01-01T01:00:00Z</time>
      </trkpt>
      <trkpt lat="51.215381" lon="4.482764">
        <ele>48.9091</ele>
        <time>1970-01-01T01:00:00Z</time>
      </trkpt>
      <trkpt lat="51.215315" lon="4.482667">
        <ele>49</ele>
        <time>1970-01-01T01:00:00Z</time>
      </trkpt>
      <trkpt lat="51.21525" lon="4.482576">
        <ele>49.1818</ele>
        <time>1970-01-01T01:00:00Z</time>
      </trkpt>
      <trkpt lat="51.21517" lon="4.482539">
        <ele>49.1818</ele>
        <time>1970-01-01T01:00:00Z</time>
      </trkpt>
      <trkpt lat="51.215078" lon="4.482503">
        <ele>49.2727</ele>
        <time>1970-01-01T01:00:00Z</time>
      </trkpt>
      <trkpt lat="51.214995" lon="4.482493">
        <ele>49.3636</ele>
        <time>1970-01-01T01:00:00Z</time>
      </trkpt>
      <trkpt lat="51.214896" lon="4.482517">
        <ele>49.4545</ele>
        <time>1970-01-01T01:00:00Z</time>
      </trkpt>
      <trkpt lat="51.214797" lon="4.482548">
        <ele>49.6364</ele>
        <time>1970-01-01T01:00:00Z</time>
      </trkpt>
      <trkpt lat="51.214718" lon="4.482609">
        <ele>50.0909</ele>
        <time>1970-01-01T01:00:00Z</time>
      </trkpt>
      <trkpt lat="51.214667" lon="4.482719">
        <ele>50.2727</ele>
        <time>1970-01-01T01:00:00Z</time>
      </trkpt>
      <trkpt lat="51.214628" lon="4.482849">
        <ele>50.3636</ele>
        <time>1970-01-01T01:00:00Z</time>
      </trkpt>
      <trkpt lat="51.214595" lon="4.48297">
        <ele>50.2727</ele>
        <time>1970-01-01T01:00:00Z</time>
      </trkpt>
      <trkpt lat="51.21457" lon="4.483093">
        <ele>50.1818</ele>
        <time>1970-01-01T01:00:00Z</time>
      </trkpt>
      <trkpt lat="51.214541" lon="4.483215">
        <ele>49.9091</ele>
        <time>1970-01-01T01:00:00Z</time>
      </trkpt>
      <trkpt lat="51.214542" lon="4.483363">
        <ele>49.6364</ele>
        <time>1970-01-01T01:00:00Z</time>
      </trkpt>
      <trkpt lat="51.214579" lon="4.48348">
        <ele>49.1818</ele>
        <time>1970-01-01T01:00:00Z</time>
      </trkpt>
      <trkpt lat="51.214593" lon="4.483615">
        <ele>48.7273</ele>
        <time>1970-01-01T01:00:00Z</time>
      </trkpt>
      <trkpt lat="51.214616" lon="4.48377">
        <ele>48.2727</ele>
        <time>1970-01-01T01:00:00Z</time>
      </trkpt>
      <trkpt lat="51.214579" lon="4.4839">
        <ele>48</ele>
        <time>1970-01-01T01:00:00Z</time>
      </trkpt>
      <trkpt lat="51.214605" lon="4.484025">
        <ele>47.6364</ele>
        <time>1970-01-01T01:00:00Z</time>
      </trkpt>
      <trkpt lat="51.21461" lon="4.484175">
        <ele>47.2727</ele>
        <time>1970-01-01T01:00:00Z</time>
      </trkpt>
      <trkpt lat="51.214604" lon="4.484311">
        <ele>46.7273</ele>
        <time>1970-01-01T01:00:00Z</time>
      </trkpt>
      <trkpt lat="51.214614" lon="4.484472">
        <ele>46.0909</ele>
        <time>1970-01-01T01:00:00Z</time>
      </trkpt>
      <trkpt lat="51.214634" lon="4.48461">
        <ele>45.7273</ele>
        <time>1970-01-01T01:00:00Z</time>
      </trkpt>
      <trkpt lat="51.214692" lon="4.484711">
        <ele>45.6364</ele>
        <time>1970-01-01T01:00:00Z</time>
      </trkpt>
      <trkpt lat="51.21475" lon="4.484819">
        <ele>45.7273</ele>
        <time>1970-01-01T01:00:00Z</time>
      </trkpt>
      <trkpt lat="51.214825" lon="4.484882">
        <ele>45.8</ele>
        <time>1970-01-01T01:00:00Z</time>
      </trkpt>
      <trkpt lat="51.2149" lon="4.484957">
        <ele>45.8889</ele>
        <time>1970-01-01T01:00:00Z</time>
      </trkpt>
      <trkpt lat="51.214988" lon="4.485014">
        <ele>46</ele>
        <time>1970-01-01T01:00:00Z</time>
      </trkpt>
      <trkpt lat="51.21507" lon="4.485019">
        <ele>45.5</ele>
        <time>1970-01-01T01:00:00Z</time>
      </trkpt>
    </trkseg>
  </trk>
</gpx>